START_TIME,STEP,MOV.,M34,t_acc.,L5,t_acc.,L18,t_acc.,L14,t_acc.
1979-03-10 18:00:22.230 ,7,1,0.,12.0,0.,12.0,0.,12.0,0.,12.0
1979-03-10 18:00:34.230 ,7,1,0.,12.0,0.,12.0,0.,12.0,0.,12.0
1979-03-10 18:00:46.230 ,6,1,0.,12.0,0.,12.0,0.,12.0,0.,12.0
1979-03-10 18:00:58.230 ,6,1,0.,12.0,0.,12.0,0.,12.0,0.,12.0
1979-03-10 18:01:10.230 ,5,1,0.,12.0,0.,12.0,0.,12.0,0.,12.0
1979-03-10 18:01:22.230 ,5,1,0.,12.0,0.,12.0,0.,12.0,0.,12.0
1979-03-10 18:01:34.230 ,4,1,0.,12.0,0.,12.0,0.,12.0,0.,12.0
1979-03-10 18:01:46.230 ,4,1,0.,12.0,0.,12.0,0.,12.0,0.,12.0
1979-03-10 18:01:58.230 ,3,1,0.,12.0,0.,12.0,0.,12.0,0.,12.0
1979-03-10 18:02:10.230 ,3,1,0.,12.0,0.,12.0,0.,12.0,0.,12.0
1979-03-10 18:02:22.230 ,2,1,0.,12.0,0.,12.0,0.,12.0,0.,12.0
1979-03-10 18:02:34.230 ,2,1,0.,12.0,0.,12.0,0.,12.0,0.,12.0
1979-03-10 18:02:46.230 ,1,1,0.,12.0,0.,12.0,0.,12.0,0.,12.0
1979-03-10 18:02:58.230 ,1,1,0.,12.0,0.,12.0,0.,12.0,0.,12.0
1979-03-10 18:03:10.230 ,0,1,0.,12.0,0.,12.0,0.,12.0,0.,12.0
1979-03-10 18:03:22.230 ,0,1,0.,12.0,0.,12.0,0.,12.0,0.,12.0
1979-03-10 18:03:34.230 ,0,1,0.,12.0,0.,12.0,0.,12.0,0.,12.0
1979-03-10 18:03:46.230 ,0,1,0.,12.0,0.,12.0,0.,12.0,0.,12.0
1979-03-10 18:03:58.230 ,1,1,0.,12.0,0.,12.0,0.,12.0,0.,12.0
1979-03-10 18:04:10.230 ,1,1,0.,12.0,0.,12.0,0.,12.0,0.,12.0
1979-03-10 18:04:22.230 ,2,1,0.,12.0,0.,12.0,0.,12.0,1.,12.0
1979-03-10 18:04:34.230 ,2,1,0.,12.0,0.,12.0,0.,12.0,0.,12.0
1979-03-10 18:04:46.230 ,3,1,0.,12.0,0.,12.0,0.,12.0,0.,12.0
1979-03-10 18:04:58.230 ,3,1,0.,12.0,0.,12.0,0.,12.0,0.,12.0
1979-03-10 18:05:10.230 ,4,1,0.,12.0,0.,12.0,0.,12.0,0.,12.0
1979-03-10 18:05:22.230 ,4,1,0.,12.0,0.,12.0,0.,12.0,0.,12.0
1979-03-10 18:05:34.230 ,5,1,0.,12.0,0.,12.0,0.,12.0,0.,12.0
1979-03-10 18:05:46.230 ,5,1,0.,12.0,0.,12.0,0.,12.0,0.,12.0
1979-03-10 18:05:58.230 ,6,1,0.,12.0,0.,12.0,0.,12.0,0.,12.0
1979-03-10 18:06:10.230 ,6,1,0.,12.0,0.,12.0,0.,12.0,0.,12.0
1979-03-10 18:06:22.230 ,7,1,0.,12.0,0.,12.0,0.,12.0,0.,12.0
1979-03-10 18:06:34.230 ,7,1,0.,12.0,0.,12.0,0.,12.0,0.,12.0
1979-03-10 18:06:46.230 ,7,1,0.,12.0,0.,12.0,0.,12.0,0.,12.0
1979-03-10 18:06:58.230 ,7,1,0.,12.0,0.,12.0,0.,12.0,0.,12.0
1979-03-10 18:07:10.230 ,6,1,0.,12.0,0.,12.0,0.,12.0,0.,12.0
1979-03-10 18:07:22.230 ,6,1,0.,12.0,0.,12.0,0.,12.0,0.,12.0
1979-03-10 18:07:34.230 ,5,1,0.,12.0,0.,12.0,0.,12.0,0.,12.0
1979-03-10 18:07:46.230 ,5,1,0.,12.0,0.,12.0,0.,12.0,0.,12.0
1979-03-10 18:07:58.230 ,4,1,0.,12.0,0.,12.0,0.,12.0,0.,12.0
1979-03-10 18:08:10.230 ,4,1,0.,12.0,0.,12.0,0.,12.0,0.,12.0
1979-03-10 18:08:22.230 ,3,1,0.,12.0,0.,12.0,0.,12.0,0.,12.0
1979-03-10 18:08:34.230 ,3,1,0.,12.0,0.,12.0,0.,12.0,0.,12.0
1979-03-10 18:08:46.230 ,2,1,0.,12.0,0.,12.0,0.,12.0,0.,12.0
1979-03-10 18:08:58.230 ,2,1,0.,12.0,0.,12.0,0.,12.0,0.,12.0
1979-03-10 18:09:10.230 ,1,1,0.,12.0,0.,12.0,0.,12.0,0.,12.0
1979-03-10 18:09:22.230 ,1,1,0.,12.0,0.,12.0,0.,12.0,0.,12.0
1979-03-10 18:09:34.230 ,0,1,0.,12.0,0.,12.0,0.,12.0,0.,12.0
1979-03-10 18:09:46.230 ,0,1,0.,12.0,0.,12.0,0.,12.0,0.,12.0
1979-03-10 18:09:58.230 ,0,1,0.,12.0,0.,12.0,0.,12.0,0.,12.0
1979-03-10 18:10:10.230 ,0,1,0.,12.0,0.,12.0,0.,12.0,0.,12.0
1979-03-10 18:10:22.230 ,1,1,0.,12.0,0.,12.0,0.,12.0,0.,12.0
1979-03-10 18:10:34.230 ,1,1,0.,12.0,0.,12.0,0.,12.0,0.,12.0
1979-03-10 18:10:46.230 ,2,1,0.,12.0,0.,12.0,0.,12.0,0.,12.0
1979-03-10 18:10:58.230 ,2,1,0.,12.0,0.,12.0,0.,12.0,0.,12.0
1979-03-10 18:11:10.230 ,3,1,0.,12.0,0.,12.0,0.,12.0,0.,12.0
1979-03-10 18:11:22.230 ,3,1,0.,12.0,0.,12.0,0.,12.0,0.,12.0
1979-03-10 18:11:34.230 ,4,1,0.,12.0,0.,12.0,0.,12.0,0.,12.0
1979-03-10 18:11:46.230 ,4,1,0.,12.0,0.,12.0,0.,12.0,0.,12.0
1979-03-10 18:11:58.230 ,5,1,0.,12.0,0.,12.0,0.,12.0,0.,12.0
1979-03-10 18:12:10.230 ,5,1,0.,12.0,0.,12.0,0.,12.0,0.,12.0
1979-03-10 18:12:22.230 ,5,0,0.,12.0,0.,12.0,0.,12.0,0.,12.0
1979-03-10 18:12:34.230 ,5,0,,0,,0,,0,,0
1979-03-10 18:12:46.230 ,7,1,0.,12.0,0.,12.0,0.,12.0,0.,12.0
1979-03-10 18:12:58.230 ,7,1,0.,12.0,0.,12.0,0.,12.0,0.,12.0
1979-03-10 18:13:10.230 ,7,1,0.,12.0,0.,12.0,0.,12.0,0.,12.0
1979-03-10 18:13:22.230 ,7,1,0.,12.0,0.,12.0,0.,12.0,0.,12.0
1979-03-10 18:13:34.230 ,6,1,0.,12.0,0.,12.0,0.,12.0,0.,12.0
1979-03-10 18:13:46.230 ,6,1,0.,12.0,0.,12.0,0.,12.0,0.,12.0
1979-03-10 18:13:58.230 ,5,1,0.,12.0,0.,12.0,0.,12.0,0.,12.0
1979-03-10 18:14:10.230 ,5,1,0.,12.0,0.,12.0,0.,12.0,0.,12.0
1979-03-10 18:14:22.230 ,4,1,0.,12.0,0.,12.0,0.,12.0,0.,12.0
1979-03-10 18:14:34.230 ,4,1,0.,12.0,0.,12.0,0.,12.0,0.,12.0
1979-03-10 18:14:46.230 ,3,1,0.,12.0,0.,12.0,0.,12.0,0.,12.0
1979-03-10 18:14:58.230 ,3,1,0.,12.0,0.,12.0,0.,12.0,0.,12.0
1979-03-10 18:15:10.230 ,2,1,0.,12.0,0.,12.0,0.,12.0,0.,12.0
1979-03-10 18:15:22.230 ,2,1,0.,12.0,0.,12.0,0.,12.0,0.,12.0
1979-03-10 18:15:34.230 ,1,1,0.,12.0,0.,12.0,0.,12.0,0.,12.0
1979-03-10 18:15:46.230 ,1,1,0.,12.0,0.,12.0,0.,12.0,0.,12.0
1979-03-10 18:15:58.230 ,0,1,0.,12.0,0.,12.0,0.,12.0,0.,12.0
1979-03-10 18:16:10.230 ,0,1,0.,12.0,0.,12.0,0.,12.0,0.,12.0
1979-03-10 18:16:22.230 ,0,1,0.,12.0,0.,12.0,0.,12.0,0.,12.0
1979-03-10 18:16:34.230 ,0,1,0.,12.0,0.,12.0,0.,12.0,0.,12.0
1979-03-10 18:16:46.230 ,1,1,0.,12.0,0.,12.0,0.,12.0,0.,12.0
1979-03-10 18:16:58.230 ,1,1,0.,12.0,0.,12.0,0.,12.0,0.,12.0
1979-03-10 18:17:10.230 ,2,1,0.,12.0,0.,12.0,0.,12.0,0.,12.0
1979-03-10 18:17:22.230 ,2,1,0.,12.0,0.,12.0,0.,12.0,0.,12.0
1979-03-10 18:17:34.230 ,3,1,0.,12.0,0.,12.0,0.,12.0,0.,12.0
1979-03-10 18:17:46.230 ,3,1,0.,12.0,0.,12.0,0.,12.0,0.,12.0
1979-03-10 18:17:58.230 ,4,1,0.,12.0,0.,12.0,0.,12.0,0.,12.0
1979-03-10 18:18:10.230 ,4,1,0.,12.0,0.,12.0,0.,12.0,0.,12.0
1979-03-10 18:18:22.230 ,5,1,0.,12.0,0.,12.0,0.,12.0,0.,12.0
1979-03-10 18:18:34.230 ,5,1,0.,12.0,0.,12.0,0.,12.0,0.,12.0
1979-03-10 18:18:46.230 ,6,1,0.,12.0,0.,12.0,0.,12.0,0.,12.0
1979-03-10 18:18:58.230 ,6,1,0.,12.0,0.,12.0,0.,12.0,0.,12.0
1979-03-10 18:19:10.230 ,7,1,0.,12.0,0.,12.0,0.,12.0,0.,12.0
1979-03-10 18:19:22.230 ,7,1,0.,12.0,0.,12.0,0.,12.0,0.,12.0
1979-03-10 18:19:34.230 ,7,1,0.,12.0,0.,12.0,0.,12.0,0.,12.0
1979-03-10 18:19:46.230 ,7,1,0.,12.0,0.,12.0,0.,12.0,0.,12.0
1979-03-10 18:19:58.230 ,6,1,0.,12.0,0.,12.0,0.,12.0,0.,12.0
1979-03-10 18:20:10.230 ,6,1,0.,12.0,0.,12.0,0.,12.0,0.,12.0
1979-03-10 18:20:22.230 ,5,1,0.,12.0,0.,12.0,0.,12.0,0.,12.0
1979-03-10 18:20:34.230 ,5,1,0.,12.0,0.,12.0,0.,12.0,0.,12.0
1979-03-10 18:20:46.230 ,4,1,0.,12.0,0.,12.0,0.,12.0,0.,12.0
1979-03-10 18:20:58.230 ,4,1,0.,12.0,0.,12.0,0.,12.0,0.,12.0
1979-03-10 18:21:10.230 ,3,1,0.,12.0,0.,12.0,0.,12.0,0.,12.0
1979-03-10 18:21:22.230 ,3,1,0.,12.0,0.,12.0,0.,12.0,0.,12.0
1979-03-10 18:21:34.230 ,2,1,0.,12.0,0.,12.0,0.,12.0,0.,12.0
1979-03-10 18:21:46.230 ,2,1,0.,12.0,0.,12.0,0.,12.0,0.,12.0
1979-03-10 18:21:58.230 ,1,1,0.,12.0,0.,12.0,0.,12.0,0.,12.0
1979-03-10 18:22:10.230 ,1,1,0.,12.0,0.,12.0,0.,12.0,0.,12.0
1979-03-10 18:22:22.230 ,0,1,0.,12.0,0.,12.0,0.,12.0,0.,12.0
1979-03-10 18:22:34.230 ,0,1,0.,12.0,0.,12.0,0.,12.0,0.,12.0
1979-03-10 18:22:46.230 ,0,1,0.,12.0,0.,12.0,0.,12.0,0.,12.0
1979-03-10 18:22:58.230 ,0,1,0.,12.0,0.,12.0,0.,12.0,0.,12.0
1979-03-10 18:23:10.230 ,1,1,0.,12.0,0.,12.0,0.,12.0,0.,12.0
1979-03-10 18:23:22.230 ,1,1,0.,12.0,0.,12.0,0.,12.0,0.,12.0
1979-03-10 18:23:34.230 ,2,1,0.,12.0,0.,12.0,0.,12.0,0.,12.0
1979-03-10 18:23:46.230 ,2,1,0.,12.0,0.,12.0,0.,12.0,0.,12.0
1979-03-10 18:23:58.230 ,3,1,0.,12.0,0.,12.0,0.,12.0,0.,12.0
1979-03-10 18:24:10.230 ,3,1,0.,12.0,0.,12.0,0.,12.0,0.,12.0
1979-03-10 18:24:22.230 ,4,1,0.,12.0,0.,12.0,0.,12.0,0.,12.0
1979-03-10 18:24:34.230 ,4,1,0.,12.0,0.,12.0,0.,12.0,0.,12.0
1979-03-10 18:24:46.230 ,5,1,0.,12.0,0.,12.0,0.,12.0,0.,12.0
1979-03-10 18:24:58.230 ,5,1,0.,12.0,0.,12.0,0.,12.0,0.,12.0
1979-03-10 18:25:10.230 ,6,1,0.,12.0,0.,12.0,0.,12.0,0.,12.0
1979-03-10 18:25:22.230 ,6,1,0.,12.0,0.,12.0,0.,12.0,0.,12.0
1979-03-10 18:25:34.230 ,7,1,0.,12.0,0.,12.0,0.,12.0,0.,12.0
1979-03-10 18:25:46.230 ,7,1,0.,12.0,0.,12.0,0.,12.0,0.,12.0
1979-03-10 18:25:58.230 ,7,1,0.,12.0,0.,12.0,0.,12.0,0.,12.0
1979-03-10 18:26:10.230 ,7,1,0.,12.0,0.,12.0,0.,12.0,0.,12.0
1979-03-10 18:26:22.230 ,6,1,0.,12.0,0.,12.0,0.,12.0,0.,12.0
1979-03-10 18:26:34.230 ,6,1,0.,12.0,0.,12.0,0.,12.0,0.,12.0
1979-03-10 18:26:46.230 ,5,1,0.,12.0,0.,12.0,0.,12.0,0.,12.0
1979-03-10 18:26:58.230 ,5,1,0.,12.0,0.,12.0,0.,12.0,0.,12.0
1979-03-10 18:27:10.230 ,4,1,0.,12.0,0.,12.0,0.,12.0,0.,12.0
1979-03-10 18:27:22.230 ,4,1,0.,12.0,0.,12.0,0.,12.0,0.,12.0
1979-03-10 18:27:34.230 ,3,1,0.,12.0,0.,12.0,0.,12.0,0.,12.0
1979-03-10 18:27:46.230 ,3,1,0.,12.0,0.,12.0,0.,12.0,0.,12.0
1979-03-10 18:27:58.230 ,2,1,0.,12.0,0.,12.0,0.,12.0,0.,12.0
1979-03-10 18:28:10.230 ,2,1,0.,12.0,0.,12.0,0.,12.0,0.,12.0
1979-03-10 18:28:22.230 ,1,1,0.,12.0,0.,12.0,0.,12.0,0.,12.0
1979-03-10 18:28:34.230 ,1,1,0.,12.0,0.,12.0,0.,12.0,0.,12.0
1979-03-10 18:28:46.230 ,0,1,0.,12.0,0.,12.0,0.,12.0,0.,12.0
1979-03-10 18:28:58.230 ,0,1,0.,12.0,0.,12.0,0.,12.0,0.,12.0
1979-03-10 18:29:10.230 ,0,1,0.,12.0,0.,12.0,0.,12.0,0.,12.0
1979-03-10 18:29:22.230 ,0,1,0.,12.0,0.,12.0,0.,12.0,0.,12.0
1979-03-10 18:29:34.230 ,1,1,0.,12.0,0.,12.0,0.,12.0,0.,12.0
1979-03-10 18:29:46.230 ,1,1,0.,12.0,0.,12.0,0.,12.0,0.,12.0
1979-03-10 18:29:58.230 ,2,1,0.,12.0,0.,12.0,0.,12.0,0.,12.0
1979-03-10 18:30:10.230 ,2,1,0.,12.0,0.,12.0,0.,12.0,0.,12.0
1979-03-10 18:30:46.230 ,4,1,0.,12.0,0.,12.0,0.,12.0,0.,12.0
1979-03-10 18:30:58.230 ,4,1,0.,12.0,0.,12.0,0.,12.0,0.,12.0
1979-03-10 18:31:10.230 ,5,1,0.,12.0,0.,12.0,0.,12.0,0.,12.0
1979-03-10 18:31:22.230 ,5,1,0.,12.0,0.,12.0,0.,12.0,0.,12.0
1979-03-10 18:31:34.230 ,6,1,0.,12.0,0.,12.0,0.,12.0,0.,12.0
1979-03-10 18:31:46.230 ,6,1,0.,12.0,0.,12.0,0.,12.0,0.,12.0
1979-03-10 18:31:58.230 ,7,1,0.,12.0,0.,12.0,0.,12.0,0.,12.0
1979-03-10 18:32:10.230 ,7,1,0.,12.0,0.,12.0,0.,12.0,0.,12.0
1979-03-10 18:32:22.230 ,7,1,0.,12.0,0.,12.0,0.,12.0,0.,12.0
1979-03-10 18:32:34.230 ,7,1,0.,12.0,0.,12.0,0.,12.0,0.,12.0
1979-03-10 18:32:46.230 ,6,1,0.,12.0,0.,12.0,0.,12.0,0.,12.0
1979-03-10 18:32:58.230 ,6,1,0.,12.0,0.,12.0,0.,12.0,0.,12.0
1979-03-10 18:33:10.230 ,5,1,0.,12.0,0.,12.0,0.,12.0,0.,12.0
1979-03-10 18:33:22.230 ,5,1,0.,12.0,0.,12.0,0.,12.0,0.,12.0
1979-03-10 18:33:34.230 ,4,1,0.,12.0,0.,12.0,0.,12.0,0.,12.0
1979-03-10 18:33:46.230 ,4,1,0.,12.0,0.,12.0,0.,12.0,0.,12.0
1979-03-10 18:33:58.230 ,3,1,0.,12.0,0.,12.0,0.,12.0,0.,12.0
1979-03-10 18:34:10.230 ,3,1,0.,12.0,0.,12.0,0.,12.0,0.,12.0
1979-03-10 18:34:22.230 ,2,1,0.,12.0,0.,12.0,0.,12.0,0.,12.0
1979-03-10 18:34:34.230 ,2,1,0.,12.0,0.,12.0,0.,12.0,0.,12.0
1979-03-10 18:34:46.230 ,1,1,0.,12.0,0.,12.0,0.,12.0,0.,12.0
1979-03-10 18:34:58.230 ,1,1,0.,12.0,0.,12.0,0.,12.0,0.,12.0
1979-03-10 18:35:10.230 ,0,1,0.,12.0,0.,12.0,0.,12.0,0.,12.0
1979-03-10 18:35:22.230 ,0,1,0.,12.0,0.,12.0,0.,12.0,0.,12.0
1979-03-10 18:35:34.230 ,0,1,0.,12.0,0.,12.0,0.,12.0,0.,12.0
1979-03-10 18:35:46.230 ,0,1,0.,12.0,0.,12.0,0.,12.0,0.,12.0
1979-03-10 18:35:58.230 ,1,1,0.,12.0,0.,12.0,0.,12.0,0.,12.0
1979-03-10 18:36:10.230 ,1,1,0.,12.0,0.,12.0,0.,12.0,0.,12.0
1979-03-10 18:36:22.230 ,2,1,0.,12.0,0.,12.0,0.,12.0,0.,12.0
1979-03-10 18:36:34.230 ,2,1,0.,12.0,0.,12.0,0.,12.0,0.,12.0
1979-03-10 18:36:46.230 ,3,1,0.,12.0,0.,12.0,0.,12.0,0.,12.0
1979-03-10 18:36:58.230 ,3,1,0.,12.0,0.,12.0,0.,12.0,0.,12.0
1979-03-10 18:37:10.230 ,4,1,0.,12.0,0.,12.0,0.,12.0,0.,12.0
1979-03-10 18:37:22.230 ,4,1,0.,12.0,0.,12.0,0.,12.0,0.,12.0
1979-03-10 18:37:34.230 ,5,1,0.,12.0,0.,12.0,0.,12.0,0.,12.0
1979-03-10 18:37:46.230 ,5,1,0.,12.0,0.,12.0,0.,12.0,0.,12.0
1979-03-10 18:37:58.230 ,6,1,0.,12.0,0.,12.0,0.,12.0,0.,12.0
1979-03-10 18:38:10.230 ,6,1,0.,12.0,0.,12.0,0.,12.0,0.,12.0
1979-03-10 18:38:22.230 ,7,1,0.,12.0,0.,12.0,0.,12.0,0.,12.0
1979-03-10 18:38:34.230 ,7,1,0.,12.0,0.,12.0,0.,12.0,0.,12.0
1979-03-10 18:38:46.230 ,7,1,0.,12.0,0.,12.0,0.,12.0,0.,12.0
1979-03-10 18:38:58.230 ,7,1,0.,12.0,0.,12.0,0.,12.0,0.,12.0
1979-03-10 18:39:10.230 ,5,1,0.,12.0,0.,12.0,0.,12.0,0.,12.0
1979-03-10 18:39:22.230 ,5,1,0.,12.0,0.,12.0,0.,12.0,0.,12.0
1979-03-10 18:39:34.230 ,1,1,0.,12.0,0.,12.0,0.,12.0,0.,12.0
1979-03-10 18:39:46.230 ,1,1,0.,12.0,0.,12.0,0.,12.0,0.,12.0
1979-03-10 18:39:58.230 ,2,1,0.,12.0,0.,12.0,0.,12.0,0.,12.0
1979-03-10 18:40:10.230 ,2,1,0.,12.0,0.,12.0,0.,12.0,0.,12.0
1979-03-10 18:40:22.230 ,6,1,0.,12.0,0.,12.0,0.,12.0,0.,12.0
1979-03-10 18:40:34.230 ,6,1,0.,12.0,0.,12.0,0.,12.0,0.,12.0
1979-03-10 18:40:46.230 ,5,1,0.,12.0,0.,12.0,0.,12.0,0.,12.0
1979-03-10 18:40:58.230 ,5,1,0.,12.0,0.,12.0,0.,12.0,0.,12.0
1979-03-10 18:41:10.230 ,1,1,0.,12.0,0.,12.0,0.,12.0,0.,12.0
1979-03-10 18:41:22.230 ,1,1,0.,12.0,0.,12.0,0.,12.0,0.,12.0
1979-03-10 18:41:34.230 ,2,1,0.,12.0,0.,12.0,0.,12.0,0.,12.0
1979-03-10 18:41:46.230 ,2,1,0.,12.0,0.,12.0,0.,12.0,0.,12.0
1979-03-10 18:41:58.230 ,6,1,0.,12.0,0.,12.0,0.,12.0,0.,12.0
1979-03-10 18:42:10.230 ,6,1,0.,12.0,0.,12.0,0.,12.0,0.,12.0
1979-03-10 18:42:22.230 ,5,1,0.,12.0,0.,12.0,0.,12.0,0.,12.0
1979-03-10 18:42:34.230 ,5,1,0.,12.0,0.,12.0,0.,12.0,0.,12.0
1979-03-10 18:42:46.230 ,1,1,0.,12.0,0.,12.0,0.,12.0,0.,12.0
1979-03-10 18:42:58.230 ,1,1,0.,12.0,0.,12.0,0.,12.0,0.,12.0
1979-03-10 18:43:10.230 ,2,1,0.,12.0,0.,12.0,0.,12.0,0.,12.0
1979-03-10 18:43:22.230 ,2,1,0.,12.0,0.,12.0,0.,12.0,0.,12.0
1979-03-10 18:43:34.230 ,6,1,0.,12.0,0.,12.0,0.,12.0,0.,12.0
1979-03-10 18:43:46.230 ,6,1,0.,12.0,0.,12.0,0.,12.0,0.,12.0
1979-03-10 18:43:58.230 ,5,1,0.,12.0,0.,12.0,0.,12.0,0.,12.0
1979-03-10 18:44:10.230 ,5,1,0.,12.0,0.,12.0,0.,12.0,0.,12.0
1979-03-10 18:44:22.230 ,1,1,0.,12.0,0.,12.0,0.,12.0,0.,12.0
1979-03-10 18:44:34.230 ,1,1,0.,12.0,0.,12.0,0.,12.0,0.,12.0
1979-03-10 18:44:46.230 ,2,1,0.,12.0,0.,12.0,0.,12.0,0.,12.0
1979-03-10 18:44:58.230 ,2,1,0.,12.0,0.,12.0,0.,12.0,0.,12.0
1979-03-10 18:45:10.230 ,6,1,0.,12.0,0.,12.0,0.,12.0,0.,12.0
1979-03-10 18:45:22.230 ,6,1,0.,12.0,0.,12.0,0.,12.0,0.,12.0
1979-03-10 18:45:34.230 ,5,1,0.,12.0,0.,12.0,0.,12.0,0.,12.0
1979-03-10 18:45:46.230 ,5,1,0.,12.0,0.,12.0,0.,12.0,0.,12.0
1979-03-10 18:45:58.230 ,1,1,0.,12.0,0.,12.0,0.,12.0,0.,12.0
1979-03-10 18:46:10.230 ,1,1,0.,12.0,0.,12.0,0.,12.0,0.,12.0
1979-03-10 18:46:22.230 ,2,1,0.,12.0,0.,12.0,0.,12.0,0.,12.0
1979-03-10 18:46:34.230 ,2,1,0.,12.0,0.,12.0,0.,12.0,0.,12.0
1979-03-10 18:46:46.230 ,6,1,0.,12.0,0.,12.0,0.,12.0,0.,12.0
1979-03-10 18:46:58.230 ,6,1,0.,12.0,0.,12.0,0.,12.0,0.,12.0
1979-03-10 18:47:10.230 ,5,1,0.,12.0,0.,12.0,0.,12.0,0.,12.0
1979-03-10 18:47:22.230 ,5,1,0.,12.0,0.,12.0,0.,12.0,0.,12.0
1979-03-10 18:47:34.230 ,1,1,0.,12.0,0.,12.0,0.,12.0,0.,12.0
1979-03-10 18:47:46.230 ,1,1,0.,12.0,0.,12.0,0.,12.0,0.,12.0
1979-03-10 18:47:58.230 ,2,1,0.,12.0,0.,12.0,0.,12.0,0.,12.0
1979-03-10 18:48:10.230 ,2,1,0.,12.0,0.,12.0,0.,12.0,0.,12.0
1979-03-10 18:48:22.230 ,6,1,0.,12.0,0.,12.0,0.,12.0,0.,12.0
1979-03-10 18:48:34.230 ,6,1,0.,12.0,0.,12.0,0.,12.0,0.,12.0
1979-03-10 18:48:46.230 ,5,1,0.,12.0,0.,12.0,0.,12.0,0.,12.0
1979-03-10 18:48:58.230 ,5,1,0.,12.0,0.,12.0,0.,12.0,0.,12.0
1979-03-10 18:49:10.230 ,1,1,0.,12.0,0.,12.0,0.,12.0,0.,12.0
1979-03-10 18:49:22.230 ,1,1,0.,12.0,0.,12.0,0.,12.0,0.,12.0
1979-03-10 18:49:34.230 ,2,1,0.,12.0,0.,12.0,0.,12.0,0.,12.0
1979-03-10 18:49:46.230 ,2,1,0.,12.0,0.,12.0,0.,12.0,0.,12.0
1979-03-10 18:49:58.230 ,6,1,0.,12.0,0.,12.0,0.,12.0,0.,12.0
1979-03-10 18:50:10.230 ,6,1,0.,12.0,0.,12.0,0.,12.0,0.,12.0
1979-03-10 18:50:22.230 ,5,1,0.,12.0,0.,12.0,0.,12.0,0.,12.0
1979-03-10 18:50:34.230 ,5,1,0.,12.0,0.,12.0,0.,12.0,0.,12.0
1979-03-10 18:50:46.230 ,1,1,0.,12.0,0.,12.0,0.,12.0,0.,12.0
1979-03-10 18:50:58.230 ,1,1,0.,12.0,0.,12.0,0.,12.0,0.,12.0
1979-03-10 18:51:10.230 ,2,1,0.,12.0,0.,12.0,0.,12.0,0.,12.0
1979-03-10 18:51:22.230 ,2,1,0.,12.0,0.,12.0,0.,12.0,0.,12.0
1979-03-10 18:51:34.230 ,6,1,0.,12.0,0.,12.0,0.,12.0,0.,12.0
1979-03-10 18:51:46.230 ,6,1,0.,12.0,0.,12.0,0.,12.0,0.,12.0
1979-03-10 18:51:58.230 ,5,1,0.,12.0,0.,12.0,0.,12.0,0.,12.0
1979-03-10 18:52:10.230 ,5,1,0.,12.0,0.,12.0,0.,12.0,0.,12.0
1979-03-10 18:52:22.230 ,1,1,0.,12.0,0.,12.0,0.,12.0,0.,12.0
1979-03-10 18:52:34.230 ,1,1,0.,12.0,0.,12.0,0.,12.0,0.,12.0
1979-03-10 18:52:46.230 ,2,1,0.,12.0,0.,12.0,0.,12.0,0.,12.0
1979-03-10 18:52:58.230 ,2,1,0.,12.0,0.,12.0,0.,12.0,0.,12.0
1979-03-10 18:53:10.230 ,6,1,0.,12.0,0.,12.0,0.,12.0,0.,12.0
1979-03-10 18:53:22.230 ,6,1,0.,12.0,0.,12.0,0.,12.0,0.,12.0
1979-03-10 18:53:34.230 ,5,1,0.,12.0,0.,12.0,0.,12.0,0.,12.0
1979-03-10 18:53:46.230 ,5,1,0.,12.0,0.,12.0,0.,12.0,0.,12.0
1979-03-10 18:53:58.230 ,1,1,0.,12.0,0.,12.0,0.,12.0,0.,12.0
1979-03-10 18:54:10.230 ,1,1,0.,12.0,0.,12.0,0.,12.0,0.,12.0
1979-03-10 18:54:22.230 ,2,1,0.,12.0,0.,12.0,0.,12.0,0.,12.0
1979-03-10 18:54:34.230 ,2,1,0.,12.0,0.,12.0,0.,12.0,0.,12.0
1979-03-10 18:54:46.230 ,6,1,0.,12.0,0.,12.0,0.,12.0,0.,12.0
1979-03-10 18:54:58.230 ,6,1,0.,12.0,0.,12.0,0.,12.0,0.,12.0
1979-03-10 18:55:10.230 ,5,1,0.,12.0,0.,12.0,0.,12.0,0.,12.0
1979-03-10 18:55:22.230 ,5,1,0.,12.0,0.,12.0,0.,12.0,0.,12.0
1979-03-10 18:55:34.230 ,1,1,0.,12.0,0.,12.0,0.,12.0,0.,12.0
1979-03-10 18:55:46.230 ,1,1,0.,12.0,0.,12.0,0.,12.0,0.,12.0
1979-03-10 18:55:58.230 ,2,1,0.,12.0,0.,12.0,0.,12.0,0.,12.0
1979-03-10 18:56:10.230 ,2,1,0.,12.0,0.,12.0,0.,12.0,0.,12.0
1979-03-10 18:56:22.230 ,6,1,0.,12.0,0.,12.0,0.,12.0,0.,12.0
1979-03-10 18:56:34.230 ,6,1,0.,12.0,0.,12.0,0.,12.0,0.,12.0
1979-03-10 18:56:46.230 ,5,1,0.,12.0,0.,12.0,0.,12.0,0.,12.0
1979-03-10 18:56:58.230 ,5,1,0.,12.0,0.,12.0,0.,12.0,0.,12.0
1979-03-10 18:57:10.230 ,1,1,0.,12.0,0.,12.0,0.,12.0,0.,12.0
1979-03-10 18:57:22.230 ,1,1,0.,12.0,0.,12.0,0.,12.0,0.,12.0
1979-03-10 18:57:34.230 ,2,1,0.,12.0,0.,12.0,0.,12.0,0.,12.0
1979-03-10 18:57:46.230 ,2,1,0.,12.0,0.,12.0,0.,12.0,0.,12.0
1979-03-10 18:57:58.230 ,6,1,0.,12.0,0.,12.0,0.,12.0,0.,12.0
1979-03-10 18:58:10.230 ,6,1,0.,12.0,0.,12.0,0.,12.0,0.,12.0
1979-03-10 18:58:22.230 ,5,1,0.,12.0,0.,12.0,0.,12.0,0.,12.0
1979-03-10 18:58:34.230 ,5,1,0.,12.0,0.,12.0,0.,12.0,0.,12.0
1979-03-10 18:58:46.230 ,1,1,0.,12.0,0.,12.0,0.,12.0,0.,12.0
1979-03-10 18:58:58.230 ,1,1,0.,12.0,0.,12.0,0.,12.0,0.,12.0
1979-03-10 18:59:10.230 ,2,1,0.,12.0,0.,12.0,0.,12.0,0.,12.0
1979-03-10 18:59:22.230 ,2,1,0.,12.0,0.,12.0,0.,12.0,0.,12.0
1979-03-10 18:59:34.230 ,6,1,0.,12.0,0.,12.0,0.,12.0,0.,12.0
1979-03-10 18:59:46.230 ,6,1,0.,12.0,0.,12.0,0.,12.0,0.,12.0
1979-03-10 18:59:58.230 ,5,1,0.,12.0,0.,12.0,0.,12.0,0.,12.0
1979-03-10 19:00:10.230 ,5,1,0.,12.0,0.,12.0,0.,12.0,0.,12.0
1979-03-10 19:00:22.230 ,1,1,0.,12.0,0.,12.0,0.,12.0,0.,12.0
1979-03-10 19:00:34.230 ,1,1,0.,12.0,0.,12.0,0.,12.0,0.,12.0
1979-03-10 19:00:46.230 ,2,1,0.,12.0,0.,12.0,0.,12.0,0.,12.0
1979-03-10 19:00:58.230 ,2,1,0.,12.0,0.,12.0,0.,12.0,0.,12.0
1979-03-10 19:01:10.230 ,6,1,0.,12.0,0.,12.0,0.,12.0,0.,12.0
1979-03-10 19:01:22.230 ,6,1,0.,12.0,0.,12.0,0.,12.0,0.,12.0
1979-03-10 19:01:34.230 ,5,1,0.,12.0,0.,12.0,0.,12.0,0.,12.0
1979-03-10 19:01:46.230 ,5,1,0.,12.0,0.,12.0,0.,12.0,0.,12.0
1979-03-10 19:01:58.230 ,1,1,0.,12.0,0.,12.0,0.,12.0,0.,12.0
1979-03-10 19:02:10.230 ,1,1,0.,12.0,0.,12.0,0.,12.0,0.,12.0
1979-03-10 19:02:22.230 ,2,1,0.,12.0,0.,12.0,0.,12.0,0.,12.0
1979-03-10 19:02:34.230 ,2,1,0.,12.0,0.,12.0,0.,12.0,0.,12.0
1979-03-10 19:02:46.230 ,6,1,0.,12.0,0.,12.0,0.,12.0,0.,12.0
1979-03-10 19:02:58.230 ,6,1,0.,12.0,0.,12.0,0.,12.0,0.,12.0
1979-03-10 19:03:10.230 ,5,1,0.,12.0,0.,12.0,0.,12.0,0.,12.0
1979-03-10 19:03:22.230 ,5,1,0.,12.0,0.,12.0,0.,12.0,0.,12.0
1979-03-10 19:03:34.230 ,1,1,0.,12.0,0.,12.0,0.,12.0,0.,12.0
1979-03-10 19:03:46.230 ,1,1,0.,12.0,0.,12.0,0.,12.0,0.,12.0
1979-03-10 19:03:58.230 ,2,1,0.,12.0,0.,12.0,0.,12.0,0.,12.0
1979-03-10 19:04:10.230 ,2,1,0.,12.0,0.,12.0,0.,12.0,0.,12.0
1979-03-10 19:04:22.230 ,6,1,0.,12.0,0.,12.0,0.,12.0,0.,12.0
1979-03-10 19:04:34.230 ,6,1,0.,12.0,0.,12.0,0.,12.0,0.,12.0
1979-03-10 19:04:46.230 ,5,1,0.,12.0,0.,12.0,0.,12.0,0.,12.0
1979-03-10 19:04:58.230 ,5,1,0.,12.0,0.,12.0,0.,12.0,0.,12.0
1979-03-10 19:05:10.230 ,1,1,0.,12.0,0.,12.0,0.,12.0,0.,12.0
1979-03-10 19:05:22.230 ,1,1,0.,12.0,0.,12.0,0.,12.0,0.,12.0
1979-03-10 19:05:34.230 ,2,1,0.,12.0,0.,12.0,0.,12.0,0.,12.0
1979-03-10 19:05:46.230 ,2,1,0.,12.0,0.,12.0,0.,12.0,0.,12.0
1979-03-10 19:05:58.230 ,6,1,0.,12.0,0.,12.0,0.,12.0,0.,12.0
1979-03-10 19:06:10.230 ,6,1,0.,12.0,0.,12.0,0.,12.0,0.,12.0
1979-03-10 19:06:22.230 ,5,1,0.,12.0,0.,12.0,0.,12.0,0.,12.0
1979-03-10 19:06:34.230 ,5,1,0.,12.0,0.,12.0,0.,12.0,0.,12.0
1979-03-10 19:06:46.230 ,1,1,0.,12.0,0.,12.0,0.,12.0,0.,12.0
1979-03-10 19:06:58.230 ,1,1,0.,12.0,0.,12.0,0.,12.0,0.,12.0
1979-03-10 19:07:10.230 ,2,1,0.,12.0,0.,12.0,0.,12.0,0.,12.0
1979-03-10 19:07:22.230 ,2,1,0.,12.0,0.,12.0,0.,12.0,0.,12.0
1979-03-10 19:07:34.230 ,6,1,0.,12.0,0.,12.0,0.,12.0,0.,12.0
1979-03-10 19:07:46.230 ,6,1,0.,12.0,0.,12.0,0.,12.0,0.,12.0
1979-03-10 19:07:58.230 ,5,1,0.,12.0,0.,12.0,0.,12.0,0.,12.0
1979-03-10 19:08:10.230 ,5,1,0.,12.0,0.,12.0,0.,12.0,0.,12.0
1979-03-10 19:08:22.230 ,1,1,0.,12.0,0.,12.0,0.,12.0,0.,12.0
1979-03-10 19:08:34.230 ,1,1,0.,12.0,0.,12.0,0.,12.0,0.,12.0
1979-03-10 19:08:46.230 ,2,1,0.,12.0,0.,12.0,0.,12.0,0.,12.0
1979-03-10 19:08:58.230 ,2,1,0.,12.0,0.,12.0,0.,12.0,0.,12.0
1979-03-10 19:09:10.230 ,6,1,0.,12.0,0.,12.0,0.,12.0,0.,12.0
1979-03-10 19:09:22.230 ,6,1,0.,12.0,0.,12.0,0.,12.0,0.,12.0
1979-03-10 19:09:34.230 ,5,1,0.,12.0,0.,12.0,0.,12.0,0.,12.0
1979-03-10 19:09:46.230 ,5,1,0.,12.0,0.,12.0,0.,12.0,0.,12.0
1979-03-10 19:09:58.230 ,1,1,0.,12.0,0.,12.0,0.,12.0,0.,12.0
1979-03-10 19:10:10.230 ,1,1,0.,12.0,0.,12.0,0.,12.0,0.,12.0
1979-03-10 19:10:22.230 ,2,1,0.,12.0,0.,12.0,0.,12.0,0.,12.0
1979-03-10 19:10:34.230 ,2,1,0.,12.0,0.,12.0,0.,12.0,0.,12.0
1979-03-10 19:10:46.230 ,6,1,0.,12.0,0.,12.0,0.,12.0,0.,12.0
1979-03-10 19:10:58.230 ,6,1,0.,12.0,0.,12.0,0.,12.0,0.,12.0
1979-03-10 19:11:10.230 ,5,1,0.,12.0,0.,12.0,0.,12.0,0.,12.0
1979-03-10 19:11:22.230 ,5,1,0.,12.0,0.,12.0,0.,12.0,0.,12.0
1979-03-10 19:11:34.230 ,1,1,0.,12.0,0.,12.0,0.,12.0,0.,12.0
1979-03-10 19:11:46.230 ,1,1,0.,12.0,0.,12.0,0.,12.0,1.,12.0
1979-03-10 19:11:58.230 ,2,1,0.,12.0,0.,12.0,0.,12.0,0.,12.0
1979-03-10 19:12:10.230 ,2,1,0.,12.0,0.,12.0,0.,12.0,0.,12.0
1979-03-10 19:12:22.230 ,6,1,0.,12.0,0.,12.0,0.,12.0,0.,12.0
1979-03-10 19:12:34.230 ,6,1,0.,12.0,0.,12.0,0.,12.0,0.,12.0
1979-03-10 19:12:46.230 ,5,1,0.,12.0,0.,12.0,0.,12.0,0.,12.0
1979-03-10 19:12:58.230 ,5,1,0.,12.0,0.,12.0,0.,12.0,0.,12.0
1979-03-10 19:13:10.230 ,1,1,0.,12.0,0.,12.0,0.,12.0,0.,12.0
1979-03-10 19:13:22.230 ,1,1,0.,12.0,0.,12.0,0.,12.0,0.,12.0
1979-03-10 19:13:34.230 ,2,1,0.,12.0,0.,12.0,0.,12.0,0.,12.0
1979-03-10 19:13:46.230 ,2,1,0.,12.0,0.,12.0,0.,12.0,0.,12.0
1979-03-10 19:13:58.230 ,6,1,0.,12.0,0.,12.0,0.,12.0,0.,12.0
1979-03-10 19:14:10.230 ,6,1,0.,12.0,0.,12.0,0.,12.0,0.,12.0
1979-03-10 19:14:22.230 ,5,1,0.,12.0,0.,12.0,0.,12.0,0.,12.0
1979-03-10 19:14:34.230 ,5,1,0.,12.0,0.,12.0,0.,12.0,0.,12.0
1979-03-10 19:14:46.230 ,1,1,0.,12.0,0.,12.0,0.,12.0,0.,12.0
1979-03-10 19:14:58.230 ,1,1,0.,12.0,0.,12.0,0.,12.0,0.,12.0
1979-03-10 19:15:10.230 ,2,1,0.,12.0,0.,12.0,0.,12.0,0.,12.0
1979-03-10 19:15:22.230 ,2,1,0.,12.0,0.,12.0,0.,12.0,0.,12.0
1979-03-10 19:15:34.230 ,6,1,0.,12.0,0.,12.0,0.,12.0,0.,12.0
1979-03-10 19:15:46.230 ,6,1,0.,12.0,0.,12.0,0.,12.0,0.,12.0
1979-03-10 19:15:58.230 ,5,1,0.,12.0,0.,12.0,0.,12.0,0.,12.0
1979-03-10 19:16:10.230 ,5,1,0.,12.0,0.,12.0,0.,12.0,0.,12.0
1979-03-10 19:16:22.230 ,1,1,0.,12.0,0.,12.0,0.,12.0,0.,12.0
1979-03-10 19:16:34.230 ,1,1,0.,12.0,0.,12.0,0.,12.0,0.,12.0
1979-03-10 19:16:46.230 ,2,1,0.,12.0,0.,12.0,0.,12.0,0.,12.0
1979-03-10 19:16:58.230 ,2,1,0.,12.0,0.,12.0,0.,12.0,0.,12.0
1979-03-10 19:17:10.230 ,6,1,0.,12.0,0.,12.0,0.,12.0,0.,12.0
1979-03-10 19:17:22.230 ,6,1,0.,12.0,0.,12.0,0.,12.0,0.,12.0
1979-03-10 19:17:34.230 ,5,1,0.,12.0,0.,12.0,0.,12.0,0.,12.0
1979-03-10 19:17:46.230 ,5,1,0.,12.0,0.,12.0,0.,12.0,0.,12.0